Location: Newark
(25.6108°S, 54.5803°W)
Time: 05:26:29
(UTC+00:00)

deb Explorer IX - Pass Details

Date: 02 November 2020
Orbit: 538 x 1104 km, 38.8° (Epoch: 29 November)

Event Time Altitude Azimuth Distance (km) Brightness Sun altitude
Rises 22:55:36 0° 233° (SW) 3,161 ? -13.5°
Reaches altitude 10° 22:58:31 10° 221° (SW) 2,135 ? -14.1°
Maximum altitude 23:02:39 27° 163° (SSE) 1,222 ? -14.9°
Enters shadow 23:05:25 15° 113° (ESE) 1,622 ? -15.5°
Drops below altitude 10° 23:06:21 10° 105° (ESE) 1,900 - -15.7°
Sets 23:08:48 0° 91° (E) 2,745 - -16.2°
